Tetonia, ID

10:09 PM MDT on August 24, 2016 (GMT -0600)
Driggs

Weather History for KDIJ - April, 2013

Change the Weather History Date:

Friday, April 19, 2013

  Actual Average (KRXE) Record (KRXE)
Temperature  
Mean Temperature 34 °F 45 °F  
Max Temperature 39 °F 57 °F 74 °F (2010)
Min Temperature 30 °F 32 °F 23 °F (2006)
Degree Days  
Heating Degree Days 30 20  
Month to date heating degree days 430  
Since 1 July heating degree days 7359  
Cooling Degree Days 0 0  
Month to date cooling degree days 0  
Year to date cooling degree days 0  
Moisture  
Dew Point 29 °F    
Average Humidity 78    
Maximum Humidity 100    
Minimum Humidity 51    
Precipitation  
Precipitation 0.04 in 0.05 in 0.13 in (2013)
Month to date precipitation 0.90  
Year to date precipitation 3.53  
Sea Level Pressure  
Sea Level Pressure 30.01 in    
Wind  
Wind Speed 11 mph (South)    
Max Wind Speed 17 mph    
Max Gust Speed 21 mph    
Visibility 9 miles    
Events Rain , Snow    
T = Trace of Precipitation, MM = Missing Value Source: NWS Daily Summary

Daily Weather History Graph

Daily Weather History Graph

Search for Another Location

Airport or City:

Trip Planner

Search our weather history database for the weather conditions in past years. The results will help you decide how hot, cold, wet, or windy it might be!

Date:

Astronomy

Apr. 19, 2013 Rise Set
Actual Time 6:34 AM MDT 8:13 PM MDT
Civil Twilight 6:04 AM MDT 8:43 PM MDT
Nautical Twilight 5:27 AM MDT 9:20 PM MDT
Astronomical Twilight 4:47 AM MDT 10:00 PM MDT
Moon 1:49 PM MDT (4/19) 3:04 AM MDT (4/19)
Length of Visible Light 14h 39m
Length of Day
13h 38m
Waxing Gibbous, 62% of the Moon is Illuminated
Apr 19
Waxing Gibbous
Apr 25
Full
May 2
Last Quarter
May 9
New
May 17
First Quarter

Hourly Weather History & Observations

Time (MDT) Temp. Windchill Dew Point Humidity Pressure Visibility Wind Dir Wind Speed Gust Speed Precip Events Conditions
12:56 AM 32.9 °F 24.7 °F 17.1 °F 52% 30.16 in 10.0 mi SSE 10.4 mph - N/A   Mostly Cloudy
1:56 AM 32.0 °F 23.0 °F 18.1 °F 57% 30.15 in 10.0 mi SSE 11.5 mph - N/A   Scattered Clouds
2:56 AM 31.1 °F 22.4 °F 19.0 °F 61% 30.14 in 10.0 mi SSE 10.4 mph - N/A   Clear
3:56 AM 30.0 °F 20.5 °F 20.1 °F 67% 30.12 in 10.0 mi SSE 11.5 mph - N/A   Clear
4:56 AM 30.0 °F 20.5 °F 19.0 °F 64% 30.09 in 10.0 mi SSE 11.5 mph - N/A   Clear
5:56 AM 32.0 °F 22.5 °F 20.1 °F 62% 30.08 in 10.0 mi South 12.7 mph - N/A   Overcast
6:56 AM 32.0 °F 22.1 °F 20.1 °F 62% 30.08 in 10.0 mi South 13.8 mph - N/A   Overcast
7:56 AM 32.9 °F 23.7 °F 21.0 °F 62% 30.09 in 10.0 mi South 12.7 mph - N/A   Overcast
9:56 AM 37.9 °F 30.9 °F 22.1 °F 53% 30.07 in 10.0 mi SSW 10.4 mph - N/A   Overcast
10:56 AM 37.9 °F 33.5 °F 24.1 °F 57% 30.06 in 10.0 mi SW 5.8 mph - N/A   Overcast
11:56 AM 39.9 °F 33.9 °F 23.0 °F 51% 30.04 in 10.0 mi South 9.2 mph - N/A   Mostly Cloudy
12:56 PM 38.8 °F 35.4 °F 25.2 °F 58% 30.02 in 10.0 mi Variable 4.6 mph - N/A   Mostly Cloudy
1:56 PM 39.9 °F 35.8 °F 26.1 °F 58% 30.01 in 10.0 mi SSW 5.8 mph - 0.00 in   Overcast
2:24 PM 37.4 °F 29.3 °F 30.2 °F 75% 30.05 in 1.8 mi SSW 12.7 mph 20.7 mph 0.00 in Rain Light Rain
2:36 PM 37.4 °F 30.3 °F 30.2 °F 75% 30.06 in 4.0 mi SSW 10.4 mph - 0.00 in Rain Light Rain
2:56 PM 36.0 °F 29.6 °F 32.0 °F 86% 30.02 in 2.5 mi South 8.1 mph - 0.00 in Snow Light Snow
3:09 PM 37.4 °F 32.8 °F 32.0 °F 81% 30.05 in 6.0 mi South 5.8 mph - 0.00 in Snow Light Snow
3:56 PM 37.9 °F 30.9 °F 32.0 °F 79% 29.99 in 10.0 mi South 10.4 mph 16.1 mph 0.00 in Snow Light Snow
4:56 PM 36.9 °F 30.1 °F 32.9 °F 86% 29.97 in 10.0 mi SE 9.2 mph - 0.00 in Snow Light Snow
5:26 PM 37.4 °F 27.8 °F 33.8 °F 87% 30.00 in 10.0 mi South 17.3 mph - 0.00 in   Mostly Cloudy
5:56 PM 36.9 °F 28.2 °F 32.9 °F 86% 29.95 in 10.0 mi South 13.8 mph - 0.00 in Rain Light Rain
6:45 PM 35.6 °F 28.0 °F 33.8 °F 93% 29.98 in 10.0 mi SSE 10.4 mph - 0.00 in   Overcast
6:56 PM 36.0 °F 29.0 °F 34.0 °F 93% 29.94 in 10.0 mi SSE 9.2 mph - 0.00 in   Overcast
7:41 PM 35.6 °F 27.5 °F 33.8 °F 93% 29.96 in 10.0 mi SSE 11.5 mph - 0.00 in   Overcast
7:56 PM 34.0 °F 27.2 °F 32.0 °F 92% 29.91 in 1.5 mi SSE 8.1 mph - 0.01 in Snow Light Snow
8:06 PM 33.8 °F 27.0 °F 32.0 °F 93% 29.95 in 3.0 mi SE 8.1 mph - 0.01 in Snow Light Snow
8:22 PM 33.8 °F 27.7 °F 33.8 °F 100% 29.94 in 6.0 mi SE 6.9 mph - 0.01 in Snow Light Snow
8:38 PM 33.8 °F 27.0 °F 33.8 °F 100% 29.94 in 10.0 mi SSE 8.1 mph - 0.02 in Snow Light Snow
8:56 PM 34.0 °F 25.5 °F 34.0 °F 100% 29.90 in 10.0 mi SSE 11.5 mph - 0.03 in   Overcast
9:03 PM 33.8 °F 25.3 °F 33.8 °F 100% 29.95 in 10.0 mi SSE 11.5 mph - N/A   Overcast
9:56 PM 36.0 °F 26.0 °F 34.0 °F 93% 29.89 in 10.0 mi South 17.3 mph - N/A   Overcast
10:46 PM 35.6 °F 26.6 °F 33.8 °F 93% 29.95 in 10.0 mi South 13.8 mph - N/A   Overcast
10:56 PM 36.0 °F 27.5 °F 32.9 °F 89% 29.88 in 10.0 mi South 12.7 mph - N/A   Overcast
11:07 PM 35.6 °F 26.6 °F 33.8 °F 93% 29.94 in 10.0 mi South 13.8 mph - N/A   Overcast
11:56 PM 36.9 °F 27.5 °F 32.9 °F 86% 29.86 in 10.0 mi South 16.1 mph - 0.00 in   Overcast